COSMOS 886 DEB

Satellite information

Favourite Embed

Satellite Type and Status

DEBRISIN ORBIT

Key statistics

Satellite COSMOS 886 DEB at a glance.

Uptime

17724

Days in orbit

Revolutions

≈ 12.7

Per day

Orbit

MEO

Medium Earth Orbit

Inclination

65.8

Latest

Satellite identification and parameters

Extended collection of information and parameters for COSMOS 886 DEB.

Object identification

Identified? True

Debris? True

Object name: COSMOS 886 DEB

International designator: 1976-126CB

Object number (NORAD): 19221

Object ID (CCSDS): 19221

Country: COMMONWEALTH OF INDEPENDENT STATES (CIS)

Current information (Y/N): Y

RCS size: SMALL

Orbital parameters

Period: 112.993 minutes

Inclination: 65.8358 deg

SMA: 7742.161 km

Apoapsis: 2033.963 km

Periapsis: 694.089 km

RAAN: 60.5648 deg

Eccentricy: 0.086531

Argument of periapsis: 298.3993 deg

Mean anomaly: 53.2431 deg

Mean motion: 12.74410751 rev/day

Mean motion (dot): 0.0 rev/day2

B* drag term: 0.000062993 1/REarth

Two-line elements (TLE)

Creation date: July 6, 2025, 10:36 p.m.

Reference frame: TEME

Reference center: EARTH

Epoch: July 6, 2025, 3:25 p.m. UTC

TLE line 0: 0 COSMOS 886 DEB

TLE line 1: 1 19221U 76126CB 25187.64264442 .00000000 00000-0 62993-4 0 9995

TLE line 2: 2 19221 65.8358 60.5648 0865310 298.3993 53.2431 12.74410751606009

Live tracking on map

Real-time ground track for satellite COSMOS 886 DEB.

In-orbit conjunctions

A list of the most updated potential collisions computed for object COSMOS 886 DEB.

Target Orbit TCA Probability of collision Miss distance Type
CZ-6A DEB LEO 2024-12-16 02:12:06 0.0002265783 428.0 (m) DEBRIS
FENGYUN 1C DEB SSO 2024-11-12 13:30:15 0.001694695 554.0 (m) DEBRIS

Associated space launch

Second generation ASAT satellite

COSMOS 886 DEB was lifted into orbit during the mission ‘Tsiklon-2 | IS-A 4’, on board a Tsiklon-2 space rocket.

The launch took place on Dec. 27, 1976, 12:05 p.m. from 90.

For more information about the launch, click the button.

Launch to space Tsiklon-2 | IS-A 4
Tsiklon-2 | IS-A 4

Agency: N/A

Status: Launch Successful

Launch date: Dec. 27, 1976, 12:05 p.m. UTC

Rocket: Tsiklon-2

Launch pad: 90

Location: Baikonur Cosmodrome, Republic of Kazakhstan

...

Latest news about this satellite

There are no fresh news available about this satellite. Check back as we update our databases every day.


Newsletter sign-up

Weekly statistics, charts and insights to help you stay on top of the space industry.